Hourly Data Report for September 20, 2017

All times are specified in Local Standard Time (LST). Add 1 hour to adjust for Daylight Saving Time where and when it is observed.

GRAND MANAN SAR CS
NEW BRUNSWICK

44°42'43.400" N
66°48'06.900" W
78.20 m
8101925
71030
XGM

Download Data

Hourly Data (September 2017)
Hourly Data Report for September 20, 2017
Temp Definition
°C
Dew Point Temp Definition
°C
Rel Hum Definition
%
Wind Dir Definition
10's deg

Wind Spd Definition
km/h
Visibility Definition
km
Stn Press Definition
kPa
Hmdx Definition


Wind Chill Definition


Weather Definition


TIME
00:00 16.7 16.5 99 7 9   100.99     LegendNANA
01:00 16.8 16.6 99 6 8   100.96     LegendNANA
02:00 16.5 16.3 99 8 11   100.90     LegendNANA
03:00 17.1 17.0 99 6 13   100.87     LegendNANA
04:00 16.8 16.6 99 6 12   100.83     LegendNANA
05:00 17.1 16.9 99 7 10   100.80     LegendNANA
06:00 16.8 16.7 99 6 12   100.80     LegendNANA
07:00 17.7 17.5 99 6 15   100.80     LegendNANA
08:00 16.8 16.7 99 6 18   100.78     LegendNANA
09:00 16.5 16.4 99 7 18   100.78     LegendNANA
10:00 18.1 17.9 99 6 18   100.73     LegendNANA
11:00 17.7 17.6 99 4 21   100.68     LegendNANA
12:00 17.5 17.4 99 6 19   100.69     LegendNANA
13:00 18.7 18.6 99 5 21   100.64     LegendNANA
14:00 19.6 18.6 94 5 17   100.59     LegendNANA
15:00 19.3 17.2 88 5 22   100.53     LegendNANA
16:00 19.0 16.7 87 6 16   100.51     LegendNANA
17:00 18.8 16.9 89 5 17   100.50     LegendNANA
18:00 18.5 17.1 91 5 15   100.54     LegendNANA
19:00 18.6 17.3 92 6 17   100.52     LegendNANA
20:00 18.8 17.4 92 5 17   100.56     LegendNANA
21:00 18.4 17.3 93 6 16   100.58     LegendNANA
22:00 18.4 17.3 93 5 18   100.62     LegendNANA
23:00 18.3 17.3 94 5 17   100.63     LegendNANA

Notes on Data Quality.

Legend

  • E = Estimated
  • M = Missing
  • NA = Not Available
  • ‡ = Partner data that is not subject to review by the National Climate Archives
Date modified: